PETERSBURG, AK current weather conditions

sailwx.info

Last reported at 2019-Jul-05 07:22 UTC.
Time now 2019-Nov-15 20:44 UTC

Location: N 56°49' W 132°58'.
View on Google Maps.

See reports from other nearby stations

  
Tides and Currents Weather Stations Pressure Air Temp Water Temp Dewpoint Dewpoint Depression Visibility Wind Speed Wind Dir Waves Ship Positions
date/time (UTC)wind fromknots sea level pressurealtimeterstation pressurevisibilityair tempwater tempwave heightnotes
2019-Nov-15 20:10 8.7 8.0 Light rain.
2019-Nov-15 20:05 120 3 8.7 7.0
2019-Nov-15 20:00 100 4 8.7 8.0
2019-Nov-15 19:56 110 4 8.7 7.2
2019-Nov-15 19:50 080 6 8.7 8.0
2019-Nov-15 19:40 8.7 7.0 Light rain.
2019-Nov-15 19:30 7.0 7.0 Light rain. Mist.
2019-Nov-15 19:10 8.7 7.0 Light rain. Mist.
2019-Nov-15 19:05 7.8 7.0 Light rain. Mist.
2019-Nov-15 18:56 290 4 4.3 7.0 Light rain. Mist.
2019-Nov-15 18:55 260 4 4.3 7.0 Light rain. Mist.
2019-Nov-15 18:50 210 3 4.3 8.0 Light rain. Mist.
2019-Nov-15 18:45 6.1 7.0 Light rain.
2019-Nov-15 18:35 6.1 8.0 Light rain.
2019-Nov-15 18:20 130 6 6.1 8.0 Light rain.
2019-Nov-15 18:10 150 3 8.7 8.0 Light rain.
2019-Nov-15 18:00 8.7 8.0 Light rain.
2019-Nov-15 17:56 8.7 7.8 Light rain.
2019-Nov-15 17:55 8.7 8.0 Light rain.
2019-Nov-15 17:40 110 5 8.7 8.0 Light rain.
2019-Nov-15 17:35 090 3 7.8 8.0 Light rain.
2019-Nov-15 17:30 090 4 7.8 8.0 Light rain.
2019-Nov-15 17:25 200 4 8.7 7.0 Light rain.
2019-Nov-15 17:20 200 3 8.7 8.0 Light rain.
2019-Nov-15 17:05 130 6 8.7 7.0 Light rain.
2019-Nov-15 17:00 110 4 8.7 7.0 Light rain.
2019-Nov-15 16:56 8.7 7.8 Light rain.
2019-Nov-15 16:55 100 3 8.7 8.0 Light rain.
2019-Nov-15 16:45 8.7 8.0 Light rain.
2019-Nov-15 16:40 8.7 8.0 Light rain.
2019-Nov-15 16:30 8.7 7.0
2019-Nov-15 16:25 8.7 7.0
2019-Nov-15 16:20 8.7 7.0
2019-Nov-15 16:15 130 4 8.7 7.0
2019-Nov-15 16:10 100 6 8.7 7.0
2019-Nov-15 16:05 110 7 8.7 7.0 Light rain.
2019-Nov-15 15:56 090 6 8.7 7.0 Light rain.
2019-Nov-15 15:55 110 3 8.7 7.0 Light rain.
2019-Nov-15 15:45 8.7 7.0 Light rain.
2019-Nov-15 15:40 8.7 7.0 Light rain.
2019-Nov-15 15:35 8.7 7.0 Light rain.
2019-Nov-15 15:34 8.7 8.0 Light rain.
2019-Nov-15 15:27 110 4 8.7 7.0 Light rain.
2019-Nov-15 15:25 110 3 8.7 7.0 Light rain.
2019-Nov-15 15:20 100 3 8.7 7.0 Light rain.
2019-Nov-15 15:15 8.7 7.0 Light rain.
2019-Nov-15 15:12 8.7 7.0 Light rain.
2019-Nov-15 15:10 8.7 7.0 Light rain.
2019-Nov-15 15:05 8.7 7.0 Light rain.
2019-Nov-15 15:00 7.8 7.0 Light rain.
2019-Nov-15 14:56 7.8 7.2 Light rain.
2019-Nov-15 14:55 8.7 7.0 Light rain.
2019-Nov-15 14:50 240 3 8.7 7.0 Light rain.
2019-Nov-15 14:45 200 3 8.7 7.0 Light rain.
2019-Nov-15 14:40 8.7 8.0 Light rain.
2019-Nov-15 14:35 060 5 8.7 8.0 Light rain.
2019-Nov-15 14:30 050 4 8.7 8.0 Light rain.
2019-Nov-15 14:25 050 3 8.7 7.0 Light rain.
2019-Nov-15 14:20 010 3 8.7 7.0 Light rain.
2019-Nov-15 14:10 7.8 7.0 Light rain.
2019-Nov-15 14:05 200 3 8.7 7.0 Light rain.
2019-Nov-15 14:00 190 3 8.7 7.0
2019-Nov-15 13:56 8.7 7.2
2019-Nov-15 13:55 8.7 7.0
2019-Nov-15 13:40 080 4 8.7 7.0 Light rain.
2019-Nov-15 13:35 8.7 7.0 Light rain.
2019-Nov-15 13:30 8.7 7.0 Light rain.
2019-Nov-15 13:20 8.7 7.0 Light rain.
2019-Nov-15 13:15 8.7 7.0 Light rain.
2019-Nov-15 13:05 7.8 7.0 Light rain.
2019-Nov-15 12:56 8.7 7.2 Light rain.
2019-Nov-15 12:40 260 4 8.7 7.0 Light rain.
2019-Nov-15 12:35 8.7 7.0 Light rain.
2019-Nov-15 12:30 270 3 8.7 7.0 Light rain.
2019-Nov-15 12:25 8.7 8.0 Light rain.
2019-Nov-15 12:10 090 3 8.7 8.0 Light rain.
2019-Nov-15 12:05 040 4 8.7 7.0 Light rain.
2019-Nov-15 11:56 8.7 7.2 Light rain.
2019-Nov-15 11:55 8.7 7.0 Light rain.
2019-Nov-15 11:50 280 3 7.8 7.0 Light rain.
2019-Nov-15 11:45 7.8 7.0 Light rain.
2019-Nov-15 11:40 020 3 7.8 7.0
2019-Nov-15 11:35 7.0 7.0 Light rain.
2019-Nov-15 11:30 240 3 7.8 7.0 Light rain.
2019-Nov-15 11:25 260 3 8.7 8.0 Light rain.
2019-Nov-15 11:20 8.7 8.0
2019-Nov-15 11:15 8.7 7.0
2019-Nov-15 11:11 8.7 7.0
2019-Nov-15 11:10 080 3 8.7 7.0
2019-Nov-15 11:05 8.7 7.0
2019-Nov-15 11:00 090 3 8.7 8.0
2019-Nov-15 10:56 260 2 8.7 7.8
2019-Nov-15 10:55 280 3 8.7 8.0 Light rain.
2019-Nov-15 10:50 8.7 7.0
2019-Nov-15 10:45 240 4 8.7 7.0 Light rain.
2019-Nov-15 10:40 8.0
2019-Nov-15 10:35
2019-Nov-15 10:30 8.7 7.0 Light rain.
2019-Nov-15 10:25 190 3 8.7 8.0
2019-Nov-15 10:23 190 4 8.7 8.0
2019-Nov-15 10:20 110 4 8.7 8.0
2019-Nov-15 10:15 8.7 8.0
2019-Nov-15 10:10 8.7 8.0
2019-Nov-15 10:06 300 2 8.7 8.0 Light rain.
2019-Nov-15 10:05 300 3 8.7 8.0
2019-Nov-15 09:56 8.7 7.8
2019-Nov-15 09:55 8.7 8.0
2019-Nov-15 09:50 8.7 8.0
2019-Nov-15 09:45 260 3 8.7 8.0
2019-Nov-15 09:35 8.0
2019-Nov-15 09:32 230 4 8.0
2019-Nov-15 09:30
2019-Nov-15 09:20 340 3 8.7 8.0
2019-Nov-15 09:15 8.7 8.0
2019-Nov-15 09:05 8.7 8.0
2019-Nov-15 09:00 210 3 8.7 8.0
2019-Nov-15 08:56 8.7 7.8 Light rain.
2019-Nov-15 08:55 8.7 8.0 Light rain.
2019-Nov-15 08:45 8.7 8.0
2019-Nov-15 08:40 290 3 8.7 8.0 Light rain.
2019-Nov-15 08:35 210 3 8.7 8.0
2019-Nov-15 08:30 8.7 8.0 Light rain.
2019-Nov-15 08:25 8.7 7.0
2019-Nov-15 08:20 8.7 8.0
2019-Nov-15 08:15 230 3 8.7 7.0
2019-Nov-15 08:05 8.7 8.0
2019-Nov-15 08:00 220 3 8.7 8.0
2019-Nov-15 07:56 8.7 7.8 Light rain.
2019-Nov-15 07:55 8.7 8.0 Light rain.
2019-Nov-15 07:45 220 3 8.7 7.0
2019-Nov-15 07:40 270 4 8.7 8.0
2019-Nov-15 07:35 260 3 8.7 7.0
2019-Nov-15 07:30 270 3 8.7 8.0
2019-Nov-15 07:20 8.7 8.0
2019-Nov-15 07:15 8.7 8.0
2019-Nov-15 07:10 8.7 8.0
2019-Nov-15 07:05 8.7 8.0
2019-Nov-15 07:04 8.7 8.0
2019-Nov-15 07:00 8.7 8.0
2019-Nov-15 06:56 8.7 8.0
2019-Nov-15 06:55 260 3 8.7 8.0
2019-Nov-15 06:50 8.7 8.0
2019-Nov-15 05:56 6.1 9.0
2019-Nov-15 04:56 200 9 8.7 9.0
2019-Nov-15 03:56 180 4 6.1 9.0 Light rain.
2019-Nov-15 02:56 170 5 8.7 9.0
2019-Nov-15 01:56 8.7 9.0 Light rain.
2019-Nov-15 00:56 8.7 9.0 Light rain.
2019-Nov-14 23:56 4.3 9.0 Light rain. Mist.
2019-Nov-14 22:56 110 5 8.710.0
2019-Nov-14 21:56 320 2 8.7 9.0 Light rain.
2019-Nov-14 20:56 310 2 8.7 9.0 Light rain.
2019-Nov-14 19:56 240 2 6.1 8.0 Light rain.
2019-Nov-14 18:56 6.1 9.0 Light rain.
2019-Nov-14 16:56 110 4 4.3 9.0 Light rain. Mist.
2019-Nov-14 16:12 110 8 gusting 19 4.3 9.0 Light rain. Mist.
2019-Nov-14 16:10 110 8 4.3 9.0 Light rain. Mist.
2019-Nov-14 16:05 140 4 4.3 9.0 Light rain. Mist.
2019-Nov-14 16:00 7.8 9.0 Light rain.
2019-Nov-14 15:57 110 12 gusting 19 4.3 9.0 Light rain. Mist.
2019-Nov-14 15:56 120 5 4.3 9.0 Light rain. Mist.
2019-Nov-14 15:55 6.1 9.0 Light rain.
2019-Nov-14 15:35 120 11 8.7 9.0 Light rain.
2019-Nov-14 15:30 120 7 7.8 9.0 Light rain.
2019-Nov-14 15:20 130 8 7.0 9.0 Light rain.
2019-Nov-14 15:15 160 10 8.7 9.0 Light rain.
2019-Nov-14 15:05 130 12 8.7 9.0 Light rain.
2019-Nov-14 15:00 130 7 7.8 9.0 Light rain.
2019-Nov-14 14:56 110 14 gusting 21 7.8 8.9 Light rain.
2019-Nov-14 14:55 110 14 gusting 22 7.8 9.0 Light rain.
2019-Nov-14 14:45 110 9 gusting 15 6.1 9.0 Light rain.
2019-Nov-14 14:35 110 11 8.7 9.0 Light rain.
2019-Nov-14 14:30 100 13 7.8 9.0 Light rain.
2019-Nov-14 14:25 130 8 7.8 9.0 Light rain.
2019-Nov-14 14:20 120 14 8.7 9.0 Light rain.
2019-Nov-14 14:15 120 12 gusting 20 7.0 9.0 Light rain.
2019-Nov-14 13:56 6.9 9.4 Light rain.
2019-Nov-14 13:55 070 4 7.0 9.0 Light rain.
2019-Nov-14 13:35 130 6 7.8 9.0 Light rain.
2019-Nov-14 12:55 140 13 gusting 18 8.7 9.0 Light rain.
2019-Nov-14 12:40 120 10 gusting 15 8.7 9.0 Light rain.
2019-Nov-14 12:30 140 11 8.7 9.0
2019-Nov-14 12:10 120 10 gusting 17 7.8 9.0 Light rain.
2019-Nov-14 12:05 110 13 8.7 9.0 Light rain.
2019-Nov-14 11:00 090 10 8.7 9.0 Light rain.
2019-Nov-14 10:56 130 11 gusting 20 8.7 8.9 Light rain.
2019-Nov-14 10:35 100 9 gusting 15 8.7 9.0 Light rain.
2019-Nov-14 10:30 110 8 8.7 9.0 Light rain.
2019-Nov-14 09:50 120 10 gusting 15 8.7 9.0 Light rain.
2019-Nov-14 09:40 140 5 8.7 9.0 Light rain.
2019-Nov-14 09:35 130 12 gusting 17 8.7 9.0 Light rain.
2019-Nov-14 09:10 130 7 8.7 9.0 Light rain.
2019-Nov-14 08:50 120 6 7.0 9.0 Light rain.
2019-Nov-14 08:40 100 8 7.8 9.0 Light rain.
2019-Nov-14 07:45 130 12 8.7 9.0 Light rain.
2019-Nov-14 07:30 140 8 8.7 9.0 Light rain.
2019-Nov-14 07:25 130 13 8.7 9.0 Light rain.
2019-Nov-14 06:56 160 11 gusting 20 8.7 8.0 Light rain.
2019-Nov-14 06:50 140 10 8.7 8.0 Light rain.
2019-Nov-14 06:45 130 10 8.7 8.0 Light rain.
2019-Nov-14 06:35 090 7 8.7 8.0
2019-Nov-14 06:30 100 7 8.7 8.0 Light rain.
2019-Nov-14 05:56 120 11 gusting 18 8.7 8.0 Light rain.
2019-Nov-14 05:40 130 6 8.7 8.0 Light rain.
2019-Nov-14 05:30 140 7 8.7 8.0 Light rain.
2019-Nov-14 05:25 120 6 8.7 8.0 Light rain.
2019-Nov-14 05:20 110 8 8.7 8.0 Light rain.
2019-Nov-14 05:15 130 9 gusting 14 8.7 8.0 Light rain.
2019-Nov-14 05:10 120 8 8.7 8.0 Light rain.
2019-Nov-14 04:56 140 9 gusting 15 8.7 8.0 Light rain.
2019-Nov-14 04:50 140 9 8.7 8.0 Light rain.
2019-Nov-14 04:15 130 5 8.7 9.0 Light rain.
2019-Nov-14 04:10 130 4 8.7 9.0 Light rain.
2019-Nov-14 03:56 100 6 8.7 9.0 Light rain.
2019-Nov-14 03:50 130 6 8.7 9.0 Light rain.
2019-Nov-14 03:35 110 8 8.7 9.0 Light rain.
2019-Nov-14 03:00 100 10 8.7 9.0 Light rain.
2019-Nov-14 02:56 100 5 8.7 9.0 Light rain.
2019-Nov-14 02:40 120 6 8.7 9.0 Light rain.
2019-Nov-14 02:36 8.7 9.0 Light rain.
2019-Nov-14 02:25 110 8 8.7 9.0 Light rain.
2019-Nov-14 02:20 120 6 8.7 9.0 Light rain.
2019-Nov-14 02:10 090 8 8.7 9.0 Light rain.
2019-Nov-14 01:56 100 9 gusting 15 8.7 9.0 Light rain.
2019-Nov-14 01:50 090 10 8.7 9.0 Light rain.
2019-Nov-14 01:45 100 12 8.7 9.0 Light rain.
2019-Nov-14 01:40 100 6 8.7 9.0 Light rain.
2019-Nov-14 01:10 100 4 8.7 9.0 Light rain.
2019-Nov-14 00:56 090 8 8.7 9.0 Light rain.
2019-Nov-14 00:35 110 6 8.7 9.0 Light rain.
2019-Nov-14 00:30 110 9 8.7 9.0 Light rain.
2019-Nov-14 00:15 120 7 8.7 9.0 Light rain.
2019-Nov-13 23:56 100 6 8.7 9.0 Light rain.
2019-Nov-13 23:55 130 7 8.7 9.0 Light rain.
2019-Nov-13 23:50 110 6 8.7 9.0 Light rain.
2019-Nov-13 23:40 150 4 8.7 9.0
2019-Nov-13 23:35 120 6 8.7 9.0
2019-Nov-13 23:30 120 5 8.7 9.0
2019-Nov-13 23:00 120 5 8.7 9.0 Light rain.
2019-Nov-13 22:56 120 6 8.7 9.0 Light rain.
2019-Nov-13 22:20 140 6 8.7 9.0 Light rain.
2019-Nov-13 22:15 130 7 8.7 9.0 Light rain.
2019-Nov-13 22:10 130 5 8.7 9.0 Light rain.
2019-Nov-13 22:05 110 7 8.7 9.0 Light rain.
2019-Nov-13 22:03 110 4 8.7 9.0 Light rain.
2019-Nov-13 21:56 130 6 8.7 9.4 Light rain.
2019-Nov-13 21:55 120 7 8.7 9.0 Light rain.
2019-Nov-13 21:50 140 4 8.7 9.0 Light rain. Patches of fog.
2019-Nov-13 21:45 150 4 8.7 9.0 Light rain. Patches of fog.
2019-Nov-13 21:20 8.7 9.0 Patches of fog.
2019-Nov-13 21:15 8.7 9.0 Light rain. Patches of fog.
2019-Nov-13 21:03 8.7 9.0 Light rain. Patches of fog.
2019-Nov-13 20:56 8.7 8.9 Light rain. Patches of fog.
2019-Nov-13 20:40 8.7 8.0 Light rain. Patches of fog.
2019-Nov-13 20:30 8.7 8.0 Light rain. Patches of fog.
2019-Nov-13 20:10 8.7 8.0 Light rain. Patches of fog.